Location: Brantley
(31.5822°N, 86.2569°W)
Time: 03:59:41
(UTC+00:00)

Vanguard 2 - Pass Details

Date: 22 February 2026
Orbit: 553 x 2896 km, 32.9° (Epoch: 7 March)

Event Time Altitude Azimuth Distance (km) Brightness Sun altitude
Rises 15:30:46 0° 276° (W) 2,797 10.0 35.4°
Reaches altitude 10° 15:33:21 10° 262° (W) 1,828 9.3 35.8°
Maximum altitude 15:36:36 24° 206° (SSW) 1,160 8.9 36.3°
Drops below altitude 10° 15:40:05 10° 150° (SSE) 1,956 10.9 36.8°
Sets 15:42:57 0° 136° (SE) 3,049 11.6 37.2°
